Regional Weather Roundup
Issued by NWS Grand Forks, ND

Home | Current Version | Previous Version | Graphics & Text | Print | Product List | Glossary On
Versions: 1 2 3 4 5 6 7 8 9 10 11 12 13 14 15 16 17 18 19 20 21 22 23 24 25 26 27 28 29 30 31 32 33 34 35 36 37 38 39 40 41 42 43 44 45 46 47 48 49 50
000
ASUS43 KFGF 311131
RWRFGF
PRAIRIE TO PINES  WEATHER ROUNDUP
NATIONAL WEATHER SERVICE EASTERN NORTH DAKOTA/GRAND FORKS ND
600 AM CDT FRI OCT 31 2014

 **SATELLITE DATA USED TO AUGMENT SKY COVER AT AUTOMATED STATIONS**
 *****  WEATHER ACROSS EASTERN NORTH DAKOTA  *****

CITY           SKY/WX    TMP DP  RH WIND       PRES   REMARKS
GRAND FORKS    CLEAR     12   9  87 NW3       30.62R
GRAND FRKS AFB CLEAR     12  10  92 NW3       30.62R
GRAND FRKS NWS   N/A     14 N/A N/A NW2         N/A
DEVILS LAKE    PTCLDY    16   3  57 E5        30.55F WCI   9
FARGO          CLEAR     15  11  83 N7        30.60R WCI   5
WAHPETON ARPT  SUNNY     18  14  86 N5        30.60S WCI  11
$$

 ***** WEATHER ACROSS CENTRAL AND WESTERN NORTH DAKOTA  *****

CITY           SKY/WX    TMP DP  RH WIND       PRES   REMARKS
BISMARCK       PTCLDY    14  12  92 E5        30.55F WCI   6
MINOT          PTCLDY    13  10  88 SE7       30.49F WCI   3
JAMESTOWN      PTCLDY    15  13  91 CALM      30.58S
MINOT AFB      PTCLDY    17  15  93 SE8       30.49F WCI   6
GARRISON         N/A     25  22  88 S13       30.49F WCI  14
WILLISTON      CLOUDY    30  24  78 S13G23    30.38F WCI  20
DICKINSON      MOCLDY    26  21  81 S17       30.39F WCI  13
HETTINGER      CLOUDY    27  23  85 SE15      30.44F WCI  15
$$

 *****  OTHER AIRPORT OBSERVATIONS IN OUR AREA  *****

CITY           SKY/WX    TMP DP  RH WIND       PRES   REMARKS
WALHALLA       FAIR      12  12 100 SW3       30.62S
GRAFTON AIRPOR FAIR      16  14  93 NW5       30.62S WCI   9
VALLEY CITY AR FAIR      14  14 100 NW8       30.59R WCI   3
CANDO          FAIR      10   9  92 E3        30.57F
CAVALIER APRT  FAIR      16  12  86 W3        30.62S
GWINNER        SUNNY     19  16  86 NW7       30.61R WCI  10
SHEYENNE NWR     N/A     12   9  87 NW2       29.95S
ROLLA          FAIR      14  12  92 S6        30.54F WCI   5
 ***** THE ABOVE OBSERVATIONS ARE NON NWS ARE NOT QUALITY
       CONTROLLED AND MAY MIS-REPORT RAIN FOR SNOW...
$$

  *****  WEATHER ACROSS NORTHERN MINNESOTA  *****

CITY           SKY/WX    TMP DP  RH WIND       PRES   REMARKS
FLAG ISLAND    CLEAR     28  21  74 N5        30.57S WCI  23
WARROAD        CLEAR     19  16  86 NW5       30.58S WCI  13
ROSEAU         CLEAR     19  14  79 CALM      30.58S
HALLOCK        CLEAR     12  10  92 CALM      30.62R
THF RVR FALLS  CLEAR     19  14  79 N3        30.59R
BAUDETTE       CLEAR     23  18  81 N3        30.57R
WASKISH        CLEAR     21  18  86 CALM      30.57R
CROOKSTON      CLEAR     12  10  92 NW3       30.63R
STEPHEN NDAWN    N/A     12   9  85 W5          N/A  WCI   4
GREENBUSH NDAW   N/A     16  14  93 SE1         N/A
$$
  *****  WEATHER ACROSS CENTRAL AND WEST MINNESOTA  *****

CITY           SKY/WX    TMP DP  RH WIND       PRES   REMARKS
FOSSTON        CLEAR     16  12  86 CALM      30.57R
BEMIDJI        CLEAR     21  15  78 NE6       30.55R WCI  14
PARK RAPIDS    CLEAR     17  13  84 N3        30.53R
ELBOW LAKE     FAIR      19  18  94 NW5       30.57R WCI  12
WADENA         CLEAR     18  16  93 N3        30.54S
DETROIT LAKES  CLEAR     21  19  93 NW5       30.56R WCI  15
MOORHEAD       CLEAR     16  16 100 CALM      30.61S
FERGUS FALLS   CLEAR     18  14  86 N5        30.60R WCI  11
MORRIS MN      CLEAR     16  16 100 NW6       30.56R WCI   7
STAPLES        CLEAR     19  14  79 N6        30.54R WCI  11
$$
  *****  WEATHER ELSEWHERE ACROSS MINNESOTA  *****

CITY           SKY/WX    TMP DP  RH WIND       PRES   REMARKS
DULUTH         PTCLDY    26  16  65 N10       30.47R WCI  16
INTRNTL FALLS  PTCLDY    26  18  71 N9        30.55R WCI  17
ELY            PTCLDY    23  18  80 N5        30.48R WCI  17
CLOQUET        CLOUDY    27  18  69 N7        30.49R WCI  19
WHEATON        CLEAR     16  14  93 N3        30.61R
BRAINERD       CLEAR     25  17  72 N7        30.53R WCI  17
HIBBING        CLOUDY    27  15  61 NE9       30.50R WCI  18
ALEXANDRIA     CLEAR     26  17  68 NE13      30.54R WCI  15
SAINT CLOUD    CLEAR     27  17  66 N9        30.52R WCI  18
MINNEAPOLIS    CLEAR     27  17  66 N10       30.50R WCI  17
$$

  *****  WEATHER ACROSS SOUTH DAKOTA  *****

CITY           SKY/WX    TMP DP  RH WIND       PRES   REMARKS
SIOUX FALLS    PTCLDY    20  16  84 N7        30.55R WCI  11
BROOKINGS      NOT AVBL
WATERTOWN      CLEAR     18  15  88 NW8       30.55R WCI   8
HURON          PTCLDY    11   9  92 W5        30.60R WCI   3
SISSETON         N/A     18  16  92 NW8       30.58R WCI   8
ABERDEEN       CLEAR     15  11  83 N6        30.60S WCI   6
MITCHELL       CLEAR     17  15  92 NW7       30.60R WCI   8
PIERRE         PTCLDY    17  15  92 NE3       30.56S
MOBRIDGE       PTCLDY    21  17  84 E9        30.53F WCI  11
RAPID CITY     CLOUDY    32  30  92 S18       30.42F WCI  20
$$

  *****  SOME WEATHER IN NEARBY STATES *****

CITY           SKY/WX    TMP DP  RH WIND       PRES   REMARKS
GLASGOW MT     PTCLDY    33  28  81 SE22      30.17F WCI  21
GREAT FALLS MT MOCLDY    52  30  43 S12       29.89F
CHEYENNE WY    PTCLDY    31  26  82 S13       30.34F WCI  21
SCOTTSBLUFF NE PTCLDY    31  29  92 E12       30.41F WCI  22
OMAHA NE       CLEAR     30  22  72 N15       30.51R WCI  19
DES MOINES IA  PTCLDY    32  16  51 N18G26    30.43R WCI  20
DAVENPORT IA   CLEAR     33  21  61 N16G25    30.24R WCI  23
CHICAGO IL     CLOUDY    39  28  64 NW25G31   30.06R
EAU CLAIRE WI  MOCLDY    30  18  60 N12G22    30.39R WCI  20
LA CROSSE WI   PTCLDY    32  20  61 N14       30.36R WCI  22
$$

  *****  SOME NATIONAL WEATHER *****

CITY           SKY/WX    TMP DP  RH WIND       PRES   REMARKS
LA GUARDIA NY  MOCLDY    45  33  63 N7        30.02R
RALEIGH NC     PTCLDY    43  38  82 NE6       29.95F
ATLANTA GA     MOCLDY    45  40  82 NW9       29.93S
NEW ORLEANS LA CLEAR     56  49  77 W5        30.03S
OKLAHOMA CITY  CLEAR     50  37  61 N18G26    30.32R
ALBUQUERQUE NM PTCLDY    54  25  32 E20       30.34S
SALT LAKE CITY MOCLDY    58  24  27 SE16      30.02F
LOS ANGELES CA MOCLDY    64  61  88 E3        29.94F
BOISE ID       CLOUDY    50  37  61 NW5       29.77F
SEATTLE WA     CLOUDY    51  49  92 W3        29.74F
$$

*** WEATHER ACROSS MANITOBA...SASKATCHEWAN AND ONTARIO ***
                ***ONTARIO***

CITY           SKY/WX    TMP DP  RH WIND       PRES   REMARKS
GERALDTON      LGT SNOW  25  23  93 NW6       30.38R WCI  18
THUNDER BAY    PTCLDY    27  21  80 N6        30.46R WCI  20
SIOUX LOOKOUT  CLOUDY    23  19  86 N7        30.53R WCI  15
TORONTO        LGT RAIN  43  39  87 SE6       29.95F
BIG TROUT LK   FRZ RAIN  18  18 100 NW6       30.45S WCI   9
PICKLE LAKE    CLOUDY    23  18  80 NW7G18    30.47  WCI  15
DRYDEN         CLOUDY    23  19  86 NW10      30.54R WCI  12
KENORA         MOCLDY    21  18  86 N2        30.56R
$$
                *** MANITOBA***

CITY           SKY/WX    TMP DP  RH WIND       PRES   REMARKS
BRANDON        CLEAR      9   7  92 E3        30.56F
DAUPHIN        CLEAR     14  12  92 SE6       30.52F WCI   5
ISLAND LAKE    CLEAR     23  18  80 SW7       30.51S WCI  15
PILOT MOUND      N/A      9   7  92 SW3         N/A
THE PAS        PTCLDY    21  19  93 SE12      30.38F WCI   9
THOMPSON       CLEAR     16  14  93 SW6       30.42  WCI   7
WINNIPEG       CLEAR     12   9  85 W6        30.62S WCI   3
LYNN LAKE      CLEAR     21  18  86 S7        30.24F WCI  13
CHURCHILL      MOCLDY    19  16  86 SW12      30.27F WCI   7
GILLAM         CLEAR     14  12  92 SW10      30.41F WCI   1
$$
                ***SASKATCHEWAN***

CITY           SKY/WX    TMP DP  RH WIND       PRES   REMARKS
ESTEVAN        PTCLDY    19  16  86 SE8       30.40F WCI   9
KINDERSLEY     MOCLDY    34  30  86 SE23G29   29.92F WCI  22
LLOYDMINSTER   CLOUDY    34  30  86 SE21G29   29.86F WCI  22
PRINCE ALBERT  CLOUDY    27  23  86 S10G17    30.19F WCI  17
REGINA         CLOUDY    23  21  93 SE22G30   30.28F WCI   8
YORKTON        CLEAR     21  19  93 SE15G21   30.39F WCI   8
N. BATTLEFORD  PTCLDY    34  30  86 SE22G30   30.00F WCI  22
LA RONGE       CLEAR     28  21  74 S14G24    30.14F WCI  17
SASKATOON      CLOUDY    34  28  80 SE18G28   30.12F WCI  23
SWIFT CURRENT  CLOUDY    34  30  86 S31G40    29.99F WCI  20
$$
NOTE: THESE ARE AUTOMATED STATIONS WITH LIMITED QUALITY CONTROL
      "FAIR" INDICATES FEW OR NO CLOUDS BELOW 12,000 FEET WITH NO
      SIGNIFICANT WEATHER AND/OR OBSTRUCTIONS TO VISIBILITY.
      SKY/WX - SKY CONDITION AND SIGNIFICANT WEATHER.
      TMP - AIR TEMPERATURE.    DP   - DEWPOINT TEMPERATURE.
      RH  - RELATIVE HUMIDITY.  PRES - PRESSURE.
      HX  - HEAT INDEX.         WCI  - WIND CHILL INDEX.
$



USA.gov is the U.S. government's official web portal to all federal, state and local government web resources and services.